Date String (YYYY-MM-DD hh:mm:ss) UTC,Instrument flags,Ambient pressure (hPa),Sample flow (lpm),Bypass flow (lpm),Sample temperature (°C),Ambient temperature (°C),ASC tube jacket temperature (°C),LED temperature (°C),Box temperature (°C),Sample RH (%),Span deviation,Mass concentration (μg/m³),Mass concentration (μg/m³),Mass concentration (μg/m³)
DateTimeUTC,F1_M11,P_M11,Q1_M11,Q2_M11,T1_M11,T2_M11,T3_M11,T4_M11,T5_M11,U1_M11,ZSPAN_M11,X0_M11,X2_M11,X1_M11
2022-03-07 11:00:00,,0829.5,5.01,0.00,21.8,21.0,00.0,31.0,23.3,06.7,0000.0,0005.29,0004.16,0004.04
2022-03-07 11:01:00,,0829.5,4.99,0.00,21.9,21.5,00.0,31.0,23.5,06.6,0000.0,0005.26,0004.16,0004.05
2022-03-07 11:02:00,,0829.5,5.00,0.00,22.0,22.2,00.0,31.1,23.8,06.5,0000.0,0005.24,0004.18,0004.08
2022-03-07 11:03:00,,0829.5,5.00,0.00,22.1,22.9,00.0,31.1,24.0,06.5,0000.0,0005.26,0004.20,0004.10
2022-03-07 11:04:00,,0829.5,5.01,0.00,22.3,23.3,00.0,31.1,24.2,06.4,0000.0,0005.30,0004.23,0004.13
2022-03-07 11:05:00,,0829.5,4.98,0.00,22.3,22.9,00.0,31.2,24.1,06.4,0000.0,0005.42,0004.25,0004.14
2022-03-07 11:06:00,,0829.5,5.00,0.00,22.3,22.6,00.0,31.2,24.0,06.4,0000.0,0005.50,0004.27,0004.14
2022-03-07 11:07:00,,0829.5,4.99,0.00,22.2,22.2,00.0,31.2,23.9,06.5,0000.0,0005.47,0004.26,0004.14
2022-03-07 11:08:00,,0829.5,5.01,0.00,22.1,21.9,00.0,31.1,23.7,06.4,0000.0,0005.44,0004.27,0004.15
2022-03-07 11:09:00,,0829.5,5.00,0.00,22.1,21.6,00.0,31.1,23.6,06.4,0000.0,0005.55,0004.30,0004.17
2022-03-07 11:10:00,,0829.5,5.00,0.00,22.0,21.4,00.0,31.1,23.5,06.4,0000.0,0005.66,0004.32,0004.18
2022-03-07 11:11:00,,0829.5,5.01,0.00,21.9,21.2,00.0,31.1,23.4,06.5,0000.0,0005.71,0004.34,0004.20
2022-03-07 11:12:00,,0829.5,5.00,0.00,21.8,21.0,00.0,31.1,23.3,06.5,0000.0,0005.78,0004.35,0004.21
2022-03-07 11:13:00,,0829.5,5.00,0.00,21.8,21.4,00.0,31.0,23.4,06.5,0000.0,0005.85,0004.38,0004.21
2022-03-07 11:14:00,,0829.5,4.99,0.00,22.0,22.1,00.0,31.1,23.7,06.4,0000.0,0005.93,0004.41,0004.22
2022-03-07 11:15:00,,0829.5,5.00,0.00,22.1,22.7,00.0,31.1,24.0,06.4,0000.0,0005.99,0004.43,0004.22
2022-03-07 11:16:00,,0829.5,5.01,0.00,22.2,22.9,00.0,31.1,24.1,06.3,0000.0,0005.95,0004.43,0004.23
2022-03-07 11:17:00,,0829.5,5.00,0.00,22.2,22.5,00.0,31.1,24.0,06.3,0000.0,0005.91,0004.44,0004.25
2022-03-07 11:18:00,,0829.5,4.99,0.00,22.1,22.2,00.0,31.1,23.8,06.3,0000.0,0006.06,0004.48,0004.27
2022-03-07 11:19:00,,0829.5,5.01,0.00,22.1,21.8,00.0,31.1,23.7,06.3,0000.0,0006.18,0004.51,0004.29
2022-03-07 11:20:00,,0829.5,5.00,0.00,22.0,21.5,00.0,31.1,23.5,06.4,0000.0,0006.24,0004.52,0004.30
2022-03-07 11:21:00,,0829.5,4.99,0.00,21.9,21.3,00.0,31.1,23.4,06.4,0000.0,0006.27,0004.54,0004.32
2022-03-07 11:22:00,,0829.5,5.00,0.00,21.8,21.1,00.0,31.0,23.3,06.4,0000.0,0006.33,0004.56,0004.34
2022-03-07 11:23:00,,0829.5,4.99,0.00,21.8,21.3,00.0,31.0,23.3,06.4,0000.0,0006.31,0004.57,0004.34
2022-03-07 11:24:00,,0829.5,4.99,0.00,21.9,22.0,00.0,31.0,23.6,06.4,0000.0,0006.24,0004.55,0004.35
2022-03-07 11:25:00,,0829.5,5.01,0.00,22.1,22.7,00.0,31.1,23.9,06.3,0000.0,0006.16,0004.53,0004.34
2022-03-07 11:26:00,,0829.5,5.00,0.00,22.2,22.9,00.0,31.1,24.1,06.3,0000.0,0006.07,0004.51,0004.34
2022-03-07 11:27:00,,0829.5,5.00,0.00,22.2,22.6,00.0,31.1,24.0,06.2,0000.0,0006.12,0004.52,0004.35
2022-03-07 11:28:00,,0829.5,5.00,0.00,22.2,22.2,00.0,31.1,23.8,06.3,0000.0,0006.10,0004.53,0004.37
2022-03-07 11:29:00,,0829.4,4.98,0.00,22.1,21.9,00.0,31.1,23.7,06.3,0000.0,0006.14,0004.55,0004.38
2022-03-07 11:30:00,,0829.4,5.01,0.00,22.0,21.6,00.0,31.1,23.5,06.3,0000.0,0006.04,0004.54,0004.39
2022-03-07 11:31:00,,0829.4,5.01,0.00,21.9,21.3,00.0,31.0,23.4,06.3,0000.0,0005.93,0004.53,0004.40
2022-03-07 11:32:00,,0829.4,5.00,0.00,21.8,21.1,00.0,31.0,23.3,06.3,0000.0,0005.84,0004.51,0004.39
2022-03-07 11:33:00,,0829.5,5.00,0.00,21.8,21.2,00.0,31.0,23.3,06.3,0000.0,0005.74,0004.49,0004.40
2022-03-07 11:34:00,,0829.5,4.99,0.00,21.9,21.9,00.0,31.0,23.6,06.3,0000.0,0005.74,0004.51,0004.41
2022-03-07 11:35:00,,0829.5,5.00,0.00,22.0,22.6,00.0,31.1,23.9,06.2,0000.0,0005.79,0004.52,0004.43
2022-03-07 11:36:00,,0829.6,5.01,0.00,22.2,23.0,00.0,31.1,24.1,06.2,0000.0,0005.85,0004.55,0004.45
2022-03-07 11:37:00,,0829.5,5.00,0.00,22.2,22.7,00.0,31.1,24.0,06.2,0000.0,0005.86,0004.56,0004.47
2022-03-07 11:38:00,,0829.4,5.00,0.00,22.2,22.3,00.0,31.1,23.9,06.2,0000.0,0005.88,0004.57,0004.48
2022-03-07 11:39:00,,0829.3,5.01,0.00,22.1,22.0,00.0,31.1,23.7,06.2,0000.0,0005.89,0004.58,0004.50
2022-03-07 11:40:00,,0829.3,4.98,0.00,22.0,21.7,00.0,31.1,23.6,06.2,0000.0,0005.81,0004.57,0004.50
2022-03-07 11:41:00,,0829.3,5.00,0.00,21.9,21.4,00.0,31.1,23.4,06.2,0000.0,0005.85,0004.60,0004.52
2022-03-07 11:42:00,,0829.2,5.00,0.00,21.9,21.2,00.0,31.0,23.3,06.3,0000.0,0005.95,0004.64,0004.55
2022-03-07 11:43:00,,0829.3,5.00,0.00,21.8,21.0,00.0,31.0,23.2,06.3,0000.0,0006.09,0004.69,0004.58
2022-03-07 11:44:00,,0829.4,5.01,0.00,21.7,21.0,00.0,31.0,23.2,06.3,0000.0,0006.29,0004.75,0004.61
2022-03-07 11:45:00,,0829.2,4.99,0.00,21.8,21.6,00.0,31.0,23.4,06.2,0000.0,0006.37,0004.77,0004.62
2022-03-07 11:46:00,,0829.3,5.00,0.00,21.9,22.3,00.0,31.0,23.7,06.2,0000.0,0006.40,0004.79,0004.64
2022-03-07 11:47:00,,0829.3,5.01,0.00,22.1,22.9,00.0,31.1,24.0,06.1,0000.0,0006.46,0004.82,0004.66
2022-03-07 11:48:00,,0829.3,5.01,0.00,22.2,23.1,00.0,31.1,24.1,06.1,0000.0,0006.52,0004.85,0004.69
2022-03-07 11:49:00,,0829.3,5.00,0.00,22.2,22.7,00.0,31.1,24.0,06.1,0000.0,0006.58,0004.89,0004.72
2022-03-07 11:50:00,,0829.3,4.98,0.00,22.2,22.2,00.0,31.1,23.9,06.1,0000.0,0006.67,0004.91,0004.73
2022-03-07 11:51:00,,0829.4,5.01,0.00,22.1,21.9,00.0,31.1,23.7,06.1,0000.0,0006.73,0004.93,0004.74
2022-03-07 11:52:00,,0829.4,5.00,0.00,22.0,21.6,00.0,31.1,23.6,06.1,0000.0,0006.76,0004.94,0004.75
2022-03-07 11:53:00,,0829.3,5.00,0.00,21.9,21.3,00.0,31.0,23.4,06.1,0000.0,0006.73,0004.93,0004.75
2022-03-07 11:54:00,,0829.3,4.99,0.00,21.8,21.1,00.0,31.0,23.3,06.1,0000.0,0006.67,0004.91,0004.75
2022-03-07 11:55:00,,0829.3,5.01,0.00,21.8,21.0,00.0,31.0,23.3,06.1,0000.0,0006.61,0004.89,0004.74
2022-03-07 11:56:00,,0829.3,4.99,0.00,21.8,21.5,00.0,31.0,23.4,06.1,0000.0,0006.57,0004.89,0004.75
2022-03-07 11:57:00,,0829.3,5.01,0.00,22.0,22.2,00.0,31.0,23.7,06.0,0000.0,0006.53,0004.89,0004.76
2022-03-07 11:58:00,,0829.4,5.01,0.00,22.1,22.9,00.0,31.1,24.0,06.0,0000.0,0006.53,0004.89,0004.77
2022-03-07 11:59:00,,0829.5,4.99,0.00,22.2,23.1,00.0,31.1,24.1,05.9,0000.0,0006.52,0004.90,0004.78
